Content
SEND FEEDBACK

Daily
Averages
Monthly
Summary
Sweden

RONNEBY, SWEDEN


Home > Europe > Sweden
Elevation: 243 feet     Latitude: 56 16N     Longitude: 015 17E

WEATHER
 
SELECT A DAY
Number of Records: 292,818;   Date Range: 1/10/97 - 7/20/14
 
SHARE

PRINT THIS DATA

[ ← Previous Day ]
WEATHER ALMANAC - JANUARY 23, 2013
[ Next Day → ]
[ °C ]   °F
Weather ElementAverageHighLow
Temperature19.5 °F25 °F (2:00 pm)13 °F (5:00 am)
Dewpoint16.3 °F21.2 °F (1:50 pm)10.4 °F (3:50 am)
Humidity86.2 %93 % (1:20 am)75 % (3:00 pm)
Barometer29.94 in29.98 in (1:00 am)29.92 in (5:20 am)
Wind Speed8.6 mph11.2 mph (8:00 am)
Weather ElementAverage
Visibility19.7 mi
Wind DirectionNNE (25.8 °)

Weather ElementTotal
Precipitation---
Heating Degree Days46 (Base 65)
Averaged from 67 records on January 23, 2013
WEATHER CONDITIONS BREAKOUT
WIND DIRECTION BREAKOUT
WEATHER BY HOUR - JANUARY 23, 2013
[ °C ]   °F
Local TimeTemperatureDewpointHumidityBarometerVisibilityWind DirectionWind SpeedGust SpeedPrecipitationEventsConditions
12:20 AM19.4 °F15.8 °F86 %29.95 in6.2 miNNE (30°)6.9 mphMostly Cloudy
12:50 AM19.4 °F15.8 °F86 %29.95 in6.2 miNNE (20°)6.9 mphMostly Cloudy
1:00 AM16.0 °F13.0 °F85 %29.98 in31.0 miNNE (20°)6.7 mph
1:20 AM17.6 °F15.8 °F93 %29.95 in6.2 miNNE (20°)6.9 mph
1:50 AM15.8 °F14.0 °F93 %29.95 in6.2 miNorth (10°)8.1 mph
2:00 AM16.0 °F14.0 °F87 %29.97 in25.0 miNorth (10°)8.9 mph
2:20 AM15.8 °F14.0 °F93 %29.95 in6.2 miNorth (10°)8.1 mph
2:50 AM15.8 °F14.0 °F93 %29.95 in6.2 miNorth (10°)9.2 mph
3:00 AM14.0 °F12.0 °F87 %29.98 in25.0 miNorth (10°)8.9 mph
3:20 AM14.0 °F12.2 °F93 %29.95 in6.2 miNorth (10°)9.2 mph
3:50 AM14.0 °F10.4 °F86 %29.95 in6.2 miNorth (10°)9.2 mph
4:20 AM14.0 °F10.4 °F86 %29.95 in6.2 miNorth (10°)8.1 mph
4:50 AM14.0 °F10.4 °F86 %29.95 in6.2 miNorth (10°)8.1 mphPartly Cloudy
5:00 AM13.0 °F11.0 °F86 %29.96 in28.0 miNorth (10°)8.9 mph
5:20 AM14.0 °F12.2 °F93 %29.92 in6.2 miNorth (10°)10.4 mphMostly Cloudy
5:50 AM15.8 °F14.0 °F93 %29.92 in6.2 miNorth (10°)8.1 mphOvercast
6:00 AM16.0 °F14.0 °F86 %29.96 in31.0 miNorth (10°)6.7 mphMostly Cloudy
6:20 AM17.6 °F14.0 °F86 %29.92 inNorth (10°)6.9 mphClear
6:50 AM17.6 °F14.0 °F86 %29.92 inNNE (20°)8.1 mphClear
7:00 AM17.0 °F14.0 °F82 %29.96 in31.0 miNNE (20°)8.9 mph
7:20 AM15.8 °F14.0 °F93 %29.92 inNNE (20°)8.1 mphClear
7:50 AM15.8 °F14.0 °F93 %29.92 inNorth (10°)10.4 mphClear
8:00 AM16.0 °F13.0 °F83 %29.96 in25.0 miNNE (20°)11.2 mphMostly Cloudy
8:20 AM15.8 °F14.0 °F93 %29.92 inNorth (10°)9.2 mphClear
8:50 AM15.8 °F14.0 °F93 %29.95 inNorth (10°)8.1 mphClear
9:00 AM17.0 °F14.0 °F83 %29.96 in25.0 miNorth (10°)8.9 mphMostly Cloudy
9:20 AM17.6 °F14.0 °F86 %29.95 inNorth (10°)8.1 mphClear
9:50 AM19.4 °F17.6 °F93 %29.95 inNNE (30°)9.2 mphClear
10:20 AM21.2 °F17.6 °F86 %29.95 inNE (40°)10.4 mphClear
10:50 AM21.2 °F19.4 °F93 %29.95 inNNE (30°)9.2 mphClear
11:00 AM22.0 °F19.0 °F81 %29.97 in31.0 miNNE (30°)8.9 mphMostly Cloudy
11:20 AM23.0 °F19.4 °F86 %29.95 inNNE (30°)8.1 mphClear
11:50 AM23.0 °F19.4 °F86 %29.95 inNNE (30°)9.2 mphClear
12:00 PM23.0 °F20.0 °F81 %29.96 in31.0 miNNE (30°)8.9 mphMostly Cloudy
12:20 PM23.0 °F19.4 °F86 %29.92 inNE (40°)10.4 mphClear
12:50 PM24.8 °F19.4 °F80 %29.92 inNE (40°)8.1 mphClear
1:00 PM24.0 °F20.0 °F79 %29.96 in31.0 miNE (40°)8.9 mph
1:20 PM24.8 °F19.4 °F80 %29.92 inNNE (30°)10.4 mphClear
1:50 PM24.8 °F21.2 °F86 %29.92 inNNE (30°)10.4 mphClear
2:00 PM25.0 °F20.0 °F76 %29.95 in31.0 miNNE (30°)11.2 mphMostly Cloudy
2:20 PM24.8 °F21.2 °F86 %29.92 inNNE (30°)10.4 mphClear
2:50 PM24.8 °F19.4 °F80 %29.92 inNE (40°)8.1 mphClear
3:00 PM25.0 °F20.0 °F75 %29.95 in31.0 miNE (40°)8.9 mphMostly Cloudy
3:20 PM24.8 °F21.2 °F86 %29.92 inNE (40°)9.2 mphClear
3:50 PM24.8 °F21.2 °F86 %29.92 inNE (40°)9.2 mphClear
4:20 PM24.8 °F21.2 °F86 %29.92 inNNE (30°)9.2 mphClear
4:50 PM24.8 °F21.2 °F86 %29.92 inNNE (30°)6.9 mphClear
5:00 PM24.0 °F20.0 °F80 %29.95 in31.0 miNNE (30°)6.7 mphOvercast
5:20 PM24.8 °F19.4 °F80 %29.92 inNNE (20°)6.9 mphClear
5:50 PM23.0 °F19.4 °F86 %29.92 inNNE (30°)8.1 mphClear
6:00 PM22.0 °F18.0 °F80 %29.95 in31.0 miNNE (20°)6.7 mph
6:20 PM21.2 °F17.6 °F86 %29.92 inNNE (20°)8.1 mphClear
6:50 PM21.2 °F17.6 °F86 %29.92 inNorth (10°)8.1 mphClear
7:00 PM18.0 °F15.0 °F85 %29.95 in31.0 miNNE (20°)8.9 mphOvercast
7:20 PM21.2 °F17.6 °F86 %29.92 inNorth (10°)6.9 mphClear
7:50 PM19.4 °F15.8 °F86 %29.92 inNNE (20°)8.1 mphClear
8:00 PM18.0 °F16.0 °F86 %29.95 in31.0 miNNE (20°)8.9 mph
8:20 PM19.4 °F15.8 °F86 %29.92 inNNE (20°)9.2 mphClear
8:50 PM19.4 °F17.6 °F93 %29.92 inNorth (10°)9.2 mphClear
9:00 PM19.0 °F16.0 °F81 %29.95 in31.0 miNNE (20°)8.9 mphOvercast
9:20 PM19.4 °F15.8 °F86 %29.92 inNorth (10°)8.1 mphClear
9:50 PM19.4 °F15.8 °F86 %29.92 inNorth (10°)8.1 mphClear
10:20 PM19.4 °F17.6 °F93 %29.92 inNorth (10°)8.1 mphClear
10:50 PM19.4 °F15.8 °F86 %29.92 inNorth (10°)9.2 mphClear
11:00 PM17.0 °F14.0 °F84 %29.96 in31.0 miNNE (20°)8.9 mphOvercast
11:20 PM17.6 °F14.0 °F86 %29.92 in6.2 miNNE (20°)8.1 mphOvercast
11:50 PM17.6 °F14.0 °F86 %29.92 in6.2 miNorth (360°)6.9 mphOvercast
Hourly data recorded from ESDF, located miles away from Ronneby, Sweden







STORIES FROM OUR PARTNERS